SCP
1 1 1 1 1 1 1 1 1 1 1 1 1 1 1 1 1 1 1 1 1 1 2 1 1 1 1 1 1 1 1 1 1 1 1 1 1 1 1 1 1 0 0
1 1 1 1 1 1 1 1 1 1 1 1 1 1 1 1 1 1 1 1 1 1 1 1 1 1 1 1 1 1 1 1 1 1 1 1 1 1 1 1 1 1 0
1 1 1 1 1 1 1 1 1 1 1 1 1 1 1 1 1 1 1 2 2 1 1 1 1 1 1 1 1 1 1 1 1 1 1 1 1 1 1 1 1 1 1
1 1 1 1 1 1 1 1 1 1 1 1 1 1 1 1 1 1 2 2 1 1 1 1 1 1 1 1 1 1 1 1 1 1 1 1 1 1 1 1 1 1 1
1 1 1 1 1 1 1 1 1 1 1 1 1 1 1 1 1 1 1 1 1 1 1 1 1 1 1 1 1 2 1 1 1 1 1 1 1 1 1 1 1 1 1
1 1 1 1 1 1 1 1 1 1 1 1 1 1 1 1 1 1 1 1 2 2 1 1 1 1 1 1 2 2 2 2 2 1 1 1 1 1 1 1 1 1 1
2 2 1 1 1 1 1 1 1 1 1 1 1 1 1 1 1 1 1 1 2 2 1 2 2 2 1 1 2 2 2 2 2 2 2 2 2 1 1 1 1 1 1
2 2 2 2 1 1 1 1 1 1 1 1 1 1 1 1 1 1 1 2 2 2 2 2 2 2 2 2 2 2 2 2 2 2 2 2 2 2 1 1 1 1 1
3 3 2 2 2 1 1 2 2 1 1 1 1 1 1 1 1 1 1 1 2 2 2 2 2 2 2 2 2 2 2 2 2 2 2 2 2 2 2 2 1 1 1
4 4 3 3 2 2 2 2 2 1 1 1 1 1 1 1 1 1 1 1 2 2 2 2 2 2 2 3 2 2 2 2 2 2 2 2 2 2 2 2 1 1 1
5 5 4 4 3 2 2 2 2 1 1 1 1 1 1 1 1 1 1 1 1 1 1 2 2 2 2 3 3 2 2 2 2 2 2 2 2 2 2 1 1 1 1
5 6 6 5 4 3 2 2 2 1 1 1 1 1 1 1 1 1 1 2 2 1 1 1 1 2 2 3 2 2 2 1 1 1 1 2 2 2 1 1 1 1 1
5 6 7 6 4 3 3 2 2 2 2 1 1 1 1 1 1 1 2 2 2 2 1 1 1 2 2 2 2 2 1 1 1 1 1 1 1 1 1 1 1 1 1
5 7 8 7 5 4 3 3 2 2 2 2 2 2 2 2 1 2 2 2 2 2 1 1 1 2 2 2 2 1 1 1 1 0 0 0 1 1 1 1 1 1 1
5 7 8 7 6 4 4 4 4 3 3 3 3 2 2 2 2 2 2 3 2 2 1 1 1 1 2 2 2 2 1 1 1 0 0 0 0 0 0 0 0 0 0
4 6 7 7 6 5 5 5 5 4 4 4 4 3 3 3 3 3 3 3 2 2 2 1 1 1 1 1 2 2 2 1 1 0 0 0 0 0 0 0 0 0 0
4 5 6 6 5 5 5 5 5 5 5 5 5 4 4 4 4 3 3 3 2 2 2 1 1 1 1 1 2 2 2 1 1 0 0 0 0 0 0 0 0 0 0
4 4 5 5 5 4 4 5 5 6 6 6 6 5 5 5 4 4 3 3 3 2 2 2 1 1 1 1 2 2 1 1 1 0 0 0 0 0 0 0 0 0 0
4 4 5 5 5 4 4 4 5 6 6 6 5 5 5 5 4 4 3 3 2 2 2 2 1 1 1 1 1 1 1 1 1 1 0 0 0 0 0 0 0 0 0
4 5 5 5 5 4 4 4 4 5 5 4 4 3 3 3 3 3 3 3 2 2 2 2 1 1 2 1 1 1 1 2 2 1 0 0 0 0 0 0 0 0 0
5 6 6 6 5 4 3 3 3 4 3 3 2 2 2 2 2 2 2 2 2 2 2 2 2 2 2 2 2 1 1 1 2 2 1 0 0 0 0 0 0 0 0
5 6 7 7 6 4 2 2 3 3 3 2 2 2 2 2 2 2 2 2 2 2 2 2 2 2 2 2 2 1 1 1 1 2 1 1 0 0 0 0 0 0 0
6 7 7 7 6 4 2 2 2 2 2 2 2 2 2 2 2 2 2 2 2 1 1 2 2 3 3 3 2 1 1 1 1 2 2 1 1 1 0 0 0 0 0
7 7 7 7 6 4 2 1 1 2 2 2 2 2 2 2 3 3 3 3 2 2 1 1 2 2 2 3 3 2 1 1 2 2 2 2 2 1 1 0 0 0 0
7 7 8 7 6 4 2 1 1 1 2 2 2 2 3 3 3 3 3 4 3 3 2 1 1 1 1 2 2 2 2 2 2 2 2 2 2 2 1 0 0 0 0
7 8 8 8 7 4 2 1 1 2 2 2 3 3 3 3 3 3 3 4 4 3 2 1 0 0 1 1 2 2 2 2 2 2 3 3 3 2 1 1 0 0 0
Wind_Speed
1 2 1 1 2 2 3 2 2 2 2 1 2 2 2 1 2 3 5 11 12 11 11 11 11 10 10 9 9 9 10 10 10 9 9 9 9 9 9 9 9 9 8
2 1 1 1 1 1 2 2 2 2 2 2 2 2 2 2 1 3 5 6 9 10 11 11 11 11 11 10 10 10 10 10 10 10 9 9 9 9 9 10 9 9 9
1 1 1 1 1 1 2 2 2 1 2 2 2 1 2 2 2 2 4 4 5 8 10 11 11 11 11 10 10 10 10 10 10 9 9 9 9 8 8 8 9 9 9
1 1 1 1 1 1 1 1 1 1 1 1 1 1 1 2 3 3 3 3 4 4 7 10 10 10 10 10 10 10 9 9 9 9 9 9 9 9 9 9 9 9 9
1 1 1 0 1 1 0 1 1 1 1 1 2 2 2 2 2 4 4 4 4 4 4 8 10 10 10 10 10 10 8 8 9 9 9 10 10 9 9 9 10 10 9
1 1 2 0 0 1 1 0 1 1 1 1 2 2 2 2 2 2 3 3 3 5 5 5 6 7 9 9 8 9 9 9 9 9 9 9 9 9 9 9 8 8 8
1 1 1 1 0 1 0 1 1 1 1 1 1 1 1 2 2 2 2 2 3 3 4 5 4 4 5 9 8 8 9 10 10 9 9 8 8 8 9 9 8 8 8
1 2 1 0 1 1 0 0 1 1 1 1 1 0 0 0 1 2 2 3 3 3 3 5 4 4 3 3 5 8 8 9 9 9 9 8 7 7 8 9 9 8 8
2 1 2 0 0 1 1 1 0 1 1 1 1 1 1 1 1 0 2 2 3 2 3 3 5 4 4 3 3 7 8 7 8 8 8 7 6 5 6 7 9 9 8
2 2 2 1 1 0 1 2 1 1 1 2 1 1 1 1 1 1 1 1 2 2 2 2 2 3 3 3 3 5 7 7 7 7 7 7 7 7 7 7 7 7 7
2 2 2 1 1 1 1 1 0 1 1 2 1 1 1 1 2 1 1 1 1 1 1 2 1 2 3 2 2 4 6 6 6 6 7 7 7 7 7 7 7 7 6
2 2 3 2 1 1 1 1 1 1 1 1 2 1 1 1 2 2 2 2 1 1 1 1 1 1 2 2 3 4 5 6 5 5 5 5 5 5 5 5 5 5 5
2 2 2 2 1 1 1 1 1 1 1 1 2 2 2 2 1 1 1 1 1 1 1 1 1 1 1 3 3 4 5 6 4 4 3 3 3 3 3 3 3 3 3
1 2 2 2 2 1 1 1 1 2 1 2 2 2 2 2 1 1 1 1 1 1 1 0 1 1 1 3 3 4 4 6 5 4 4 4 3 3 3 4 4 3 3
1 2 1 2 1 1 1 1 1 1 1 1 2 2 2 1 1 1 0 0 1 1 1 1 1 1 2 3 3 3 3 5 6 5 5 5 5 5 5 5 5 4 4
1 1 1 1 1 1 1 1 1 1 1 1 1 1 1 1 1 1 1 1 0 1 1 1 1 1 1 2 3 2 3 6 6 6 6 6 6 6 6 6 5 5 5
1 1 0 0 0 1 1 1 1 1 1 1 1 0 0 1 1 1 1 0 0 1 1 0 1 1 2 2 2 1 2 3 3 5 6 7 7 7 7 6 6 5 5
1 0 0 0 0 0 0 1 1 0 0 0 1 1 1 1 1 1 1 1 1 1 1 1 1 1 2 2 1 0 2 3 3 5 7 8 8 7 7 6 6 5 5
1 0 1 1 1 0 1 1 1 0 0 1 1 1 1 2 2 1 1 1 1 1 2 2 1 1 1 1 1 0 1 1 3 5 7 7 7 7 7 6 6 5 4
1 1 1 0 0 0 1 1 0 0 1 1 1 2 2 2 2 2 1 1 1 1 1 1 2 2 1 1 1 1 1 1 1 3 4 5 6 7 6 6 6 5 4
2 1 1 1 0 0 1 2 2 1 1 1 2 2 3 4 4 3 2 2 1 1 1 1 1 1 1 1 1 1 1 1 1 2 3 3 4 3 4 4 5 5 5
1 1 1 1 0 1 2 3 2 1 1 1 1 1 2 3 3 3 3 3 2 1 0 0 1 1 2 1 1 1 1 1 1 1 2 2 3 3 3 3 5 6 5
2 2 2 1 1 1 1 2 2 1 0 1 1 0 0 2 2 1 2 2 2 2 0 1 0 0 1 2 2 2 1 1 1 2 2 1 2 3 3 4 7 7 6
2 2 2 2 2 2 2 0 1 2 2 1 1 1 1 2 2 1 0 1 2 1 1 1 0 0 1 1 2 2 2 1 1 1 2 2 2 2 2 3 7 8 7
2 3 2 2 2 2 2 2 2 2 2 2 1 1 1 3 2 1 1 1 1 1 2 2 2 2 2 2 2 1 1 1 1 2 1 1 1 2 2 3 4 7 7
3 3 3 2 2 3 3 3 3 3 3 2 2 2 2 3 2 0 1 1 1 1 1 2 2 3 3 3 3 2 1 1 1 1 1 1 1 1 1 2 3 4 4
Wind_Direction
116 117 144 166 178 160 160 166 174 175 165 183 187 160 122 104 127 130 140 162 166 173 180 183 186 189 191 193 197 201 204 207 209 210 210 209 210 210 211 212 213 214 216
103 121 145 150 156 138 154 160 179 182 179 178 187 148 137 154 139 128 139 159 173 180 185 191 193 195 198 199 200 204 209 211 212 212 212 214 215 217 220 220 219 218 219
122 149 137 158 156 165 166 167 177 174 187 181 165 169 160 161 146 139 146 156 177 188 191 193 196 198 199 200 201 207 213 214 213 213 215 216 217 218 221 222 222 224 224
161 149 134 154 157 147 158 171 182 164 155 148 162 197 163 170 168 166 172 169 173 182 190 194 197 198 200 203 206 211 213 215 213 212 215 217 217 220 221 223 225 226 226
143 127 96 61 198 138 161 212 126 136 162 171 193 192 193 191 180 192 181 186 181 172 172 185 192 195 200 205 210 212 210 213 214 214 219 223 221 222 220 222 225 226 227
142 120 137 197 234 143 156 114 120 142 204 217 241 209 199 189 188 200 197 187 178 177 172 174 182 194 200 204 208 213 213 213 214 213 217 218 217 218 219 219 219 222 224
134 131 108 171 165 123 145 141 139 201 219 202 218 244 233 210 194 198 203 188 186 183 164 161 172 178 191 203 210 213 215 216 214 211 212 214 220 223 218 216 216 219 223
169 161 131 217 115 152 143 283 183 227 257 198 166 191 252 312 263 212 201 205 188 176 165 169 175 176 181 176 201 211 214 214 215 215 213 214 222 222 219 215 214 217 221
172 117 139 175 240 205 172 250 242 236 261 269 192 179 190 203 225 271 237 197 182 181 178 177 182 179 183 176 183 201 204 206 211 213 212 213 216 215 218 218 215 216 220
187 169 162 166 245 266 182 250 181 266 250 268 258 211 206 157 185 229 272 230 191 191 188 192 177 171 174 169 172 174 186 196 203 209 210 209 210 210 213 219 221 219 213
202 189 163 159 215 251 221 275 278 265 280 275 279 266 244 215 216 199 220 241 253 187 163 161 184 162 157 157 151 151 165 185 200 208 211 212 214 215 216 218 222 223 212
193 182 154 157 195 212 208 240 244 251 254 279 295 297 277 242 223 210 219 216 218 233 167 146 179 161 143 133 133 139 151 165 183 200 206 209 211 213 213 215 219 215 211
168 141 137 143 186 217 210 236 212 250 249 262 262 269 273 275 280 251 214 230 222 227 192 180 178 138 127 118 121 119 136 142 155 173 187 190 193 201 203 201 198 191 185
121 126 146 154 180 208 224 219 233 242 236 256 267 271 276 279 290 272 199 209 248 236 180 170 79 72 81 102 109 123 122 130 135 139 149 153 150 145 145 146 148 146 138
126 111 145 157 173 193 228 218 208 264 269 258 274 275 272 274 297 317 327 249 225 252 238 149 81 69 82 91 108 118 116 122 130 131 133 133 130 125 120 116 118 117 113
44 88 124 135 160 192 208 218 224 229 233 254 256 300 308 326 334 321 292 290 230 211 231 116 102 87 69 80 99 104 119 129 140 140 138 135 128 120 115 112 109 110 110
52 89 130 151 161 219 208 228 249 246 250 268 293 332 347 345 337 321 329 340 325 138 164 111 105 99 86 78 77 89 124 119 118 132 136 132 129 126 123 120 116 112 110
71 35 195 289 248 253 229 233 256 278 288 328 1 24 2 351 10 350 358 9 28 109 142 141 112 106 104 108 102 89 105 116 117 121 131 131 129 127 125 122 118 115 115
114 202 193 213 257 286 274 254 242 267 57 46 39 43 30 26 22 5 9 14 26 80 117 134 144 117 106 94 95 66 96 117 137 136 135 134 130 128 127 125 120 115 121
143 138 90 25 226 14 328 318 71 56 83 77 68 57 47 44 27 357 26 40 44 58 112 142 149 139 129 123 124 154 121 120 126 124 125 134 141 140 137 137 135 133 131
170 146 175 221 210 143 12 26 12 65 68 83 83 87 83 79 68 48 48 45 48 74 128 156 152 149 141 145 157 198 150 143 128 126 140 151 149 151 154 154 148 145 143
176 174 200 214 285 347 45 42 26 18 77 88 84 110 141 120 106 98 89 77 66 82 124 165 164 163 149 147 161 202 180 163 164 165 156 171 156 157 158 150 153 151 150
188 195 213 196 149 104 60 56 40 309 218 180 174 216 257 102 102 101 145 157 121 99 90 261 254 160 161 174 191 216 212 202 180 179 164 173 151 151 156 156 161 163 163
204 212 220 215 195 180 184 175 297 249 224 192 199 178 118 101 57 32 222 154 152 152 189 156 86 254 152 186 199 211 205 192 172 152 139 161 162 159 145 152 170 168 168
209 217 217 215 216 170 199 225 264 245 217 195 197 152 137 120 98 18 273 186 176 182 155 134 146 195 193 206 204 194 196 179 201 184 161 161 163 155 161 163 166 174 177
213 226 223 209 207 180 200 222 247 252 226 207 186 156 131 141 158 147 241 238 232 251 207 178 196 215 205 197 205 197 204 208 194 181 164 169 177 159 178 166 158 174 188